This is the latest recevied weather packets stored in our database for station/object N0KTA-2. If no packets are shown the sender has not sent any weather packets the latest 10 day(s).
| Time | Temp. | Humidity | Pressure | Rain* | Wind** | Luminosity | Snow |
|---|---|---|---|---|---|---|---|
| 1777391363 | 10.56° C | 76% | 1013.1 hPa | 0 mm | - | - | - |
| 1777390763 | 10.56° C | 77% | 1013.3 hPa | 0 mm | - | - | - |
| 1777390164 | 10° C | 78% | 1013.4 hPa | 0 mm | - | - | - |
| 1777389564 | 10° C | 78% | 1013.5 hPa | 0 mm | - | - | - |
| 1777388965 | 9.44° C | 79% | 1013.4 hPa | 0 mm | - | - | - |
| 1777388365 | 9.44° C | 79% | 1013 hPa | 0 mm | - | - | - |
| 1777387766 | 10° C | 79% | 1012.9 hPa | 0 mm | - | - | - |
| 1777387165 | 10° C | 79% | 1013 hPa | 0 mm | - | - | - |
| 1777386566 | 9.44° C | 78% | 1013.3 hPa | 0 mm | - | - | - |
| 1777385965 | 9.44° C | 79% | 1013 hPa | 0 mm | - | - | - |
| 1777385366 | 8.89° C | 80% | 1013 hPa | 0 mm | - | - | - |
| 1777384766 | 8.89° C | 80% | 1012.9 hPa | 0 mm | - | - | - |
| 1777384165 | 8.89° C | 80% | 1012.8 hPa | 0 mm | - | - | - |
| 1777383566 | 8.89° C | 80% | 1013.2 hPa | 0 mm | - | - | - |
| 1777382966 | 8.33° C | 80% | 1012.8 hPa | 0 mm | - | - | - |
| 1777382365 | 8.33° C | 80% | 1013.2 hPa | 0 mm | - | - | - |
| 1777381766 | 8.33° C | 80% | 1012.9 hPa | 0 mm | - | - | - |
| 1777381165 | 8.33° C | 80% | 1012.8 hPa | 0 mm | - | - | - |
| 1777380566 | 8.33° C | 80% | 1012.6 hPa | 0 mm | - | - | - |
| 1777379965 | 7.78° C | 80% | 1012.7 hPa | 0 mm | - | - | - |
| 1777379365 | 7.78° C | 80% | 1012.6 hPa | 0 mm | - | - | - |
| 1777378765 | 7.78° C | 79% | 1012.7 hPa | 0 mm | - | - | - |
| 1777378166 | 7.78° C | 79% | 1012.6 hPa | 0 mm | - | - | - |
| 1777377565 | 8.33° C | 79% | 1012.6 hPa | 0 mm | - | - | - |
| 1777376966 | 8.33° C | 78% | 1012.7 hPa | 0 mm | - | - | - |
* Rain latest hour (hover to see other rain measurements)
** Current wind speed in m/s (hover to see current wind gust speed)